Total_Precipitation_Accumulation
0.01 0.01 0.02 0.02 0.03 0.06 0.09 0.10 0.11 0.17 0.19 0.20 0.25 0.29 0.27 0.27 0.30 0.29 0.27 0.29 0.30 0.31 0.32 0.31 0.31 0.32 0.31 0.32 0.34 0.35 0.35 0.35 0.38 0.44 0.40 0.37 0.38 0.39 0.37 0.34 0.36 0.39 0.42
0.01 0.02 0.03 0.04 0.03 0.04 0.07 0.10 0.10 0.13 0.19 0.19 0.19 0.24 0.24 0.26 0.28 0.29 0.30 0.30 0.30 0.30 0.31 0.31 0.32 0.34 0.33 0.31 0.30 0.33 0.36 0.34 0.34 0.43 0.46 0.40 0.35 0.32 0.29 0.28 0.31 0.36 0.42
0.02 0.03 0.04 0.05 0.05 0.05 0.06 0.09 0.10 0.11 0.16 0.22 0.24 0.28 0.32 0.31 0.32 0.32 0.30 0.31 0.30 0.30 0.30 0.30 0.32 0.33 0.36 0.35 0.31 0.31 0.36 0.37 0.35 0.39 0.55 0.61 0.45 0.32 0.25 0.25 0.27 0.29 0.30
0.01 0.02 0.03 0.04 0.06 0.07 0.08 0.10 0.13 0.12 0.13 0.19 0.27 0.30 0.33 0.30 0.25 0.25 0.27 0.29 0.30 0.30 0.30 0.31 0.32 0.34 0.35 0.37 0.38 0.35 0.36 0.39 0.39 0.38 0.40 0.47 0.49 0.56 0.40 0.19 0.16 0.19 0.21
0.01 0.02 0.01 0.02 0.04 0.06 0.08 0.09 0.14 0.16 0.14 0.15 0.20 0.28 0.32 0.32 0.32 0.31 0.31 0.32 0.34 0.33 0.32 0.31 0.32 0.33 0.34 0.34 0.37 0.39 0.41 0.41 0.41 0.43 0.41 0.37 0.35 0.43 0.59 0.35 0.15 0.14 0.15
0.02 0.03 0.03 0.03 0.03 0.04 0.06 0.09 0.12 0.16 0.16 0.18 0.19 0.25 0.30 0.34 0.38 0.41 0.38 0.35 0.35 0.35 0.34 0.33 0.33 0.34 0.34 0.33 0.35 0.37 0.38 0.39 0.40 0.41 0.43 0.46 0.48 0.43 0.52 0.50 0.29 0.21 0.16
0.03 0.03 0.03 0.05 0.06 0.04 0.05 0.09 0.12 0.15 0.17 0.18 0.21 0.22 0.26 0.30 0.33 0.39 0.39 0.38 0.36 0.37 0.39 0.37 0.35 0.35 0.36 0.37 0.38 0.40 0.41 0.41 0.41 0.41 0.42 0.45 0.48 0.48 0.55 0.62 0.49 0.34 0.22
0.03 0.03 0.03 0.03 0.04 0.04 0.05 0.08 0.10 0.13 0.17 0.19 0.21 0.23 0.26 0.28 0.28 0.33 0.39 0.41 0.38 0.37 0.42 0.44 0.43 0.40 0.40 0.44 0.46 0.47 0.47 0.47 0.47 0.45 0.46 0.49 0.48 0.49 0.56 0.65 0.71 0.61 0.34
0.03 0.03 0.03 0.02 0.03 0.03 0.04 0.06 0.08 0.09 0.12 0.17 0.22 0.25 0.25 0.26 0.26 0.27 0.33 0.37 0.36 0.35 0.37 0.45 0.51 0.54 0.52 0.51 0.54 0.57 0.56 0.57 0.57 0.56 0.56 0.57 0.52 0.51 0.53 0.59 0.75 0.97 0.81
0.04 0.04 0.03 0.03 0.03 0.04 0.04 0.06 0.09 0.10 0.11 0.12 0.17 0.23 0.24 0.26 0.26 0.27 0.29 0.34 0.38 0.39 0.37 0.39 0.45 0.54 0.58 0.59 0.60 0.60 0.63 0.67 0.68 0.68 0.67 0.65 0.64 0.64 0.63 0.64 0.69 0.85 1.03
0.07 0.07 0.04 0.03 0.04 0.05 0.06 0.07 0.11 0.12 0.13 0.14 0.15 0.19 0.26 0.28 0.31 0.34 0.35 0.36 0.40 0.46 0.47 0.43 0.41 0.43 0.50 0.60 0.67 0.67 0.69 0.73 0.74 0.75 0.78 0.77 0.77 0.79 0.78 0.79 0.79 0.83 1.01
0.10 0.09 0.06 0.05 0.06 0.07 0.09 0.11 0.14 0.14 0.15 0.15 0.17 0.19 0.25 0.32 0.36 0.40 0.43 0.45 0.48 0.50 0.53 0.53 0.51 0.45 0.44 0.52 0.61 0.65 0.68 0.73 0.75 0.78 0.83 0.84 0.85 0.88 0.89 0.93 0.93 0.90 0.93
0.08 0.08 0.08 0.08 0.09 0.09 0.11 0.15 0.18 0.16 0.17 0.17 0.19 0.22 0.26 0.33 0.41 0.46 0.49 0.50 0.53 0.58 0.59 0.59 0.60 0.56 0.55 0.59 0.62 0.65 0.68 0.69 0.71 0.73 0.79 0.84 0.92 0.97 0.95 0.96 0.96 0.91 0.84
0.07 0.08 0.08 0.09 0.10 0.11 0.12 0.16 0.20 0.19 0.22 0.24 0.25 0.30 0.37 0.41 0.46 0.51 0.53 0.53 0.55 0.60 0.64 0.65 0.65 0.66 0.72 0.84 0.86 0.77 0.76 0.73 0.70 0.70 0.75 0.82 0.93 1.03 1.10 1.17 1.08 1.00 1.03
0.08 0.10 0.11 0.10 0.12 0.13 0.15 0.19 0.24 0.27 0.32 0.38 0.40 0.40 0.40 0.44 0.44 0.47 0.50 0.53 0.56 0.59 0.61 0.61 0.64 0.70 0.83 1.12 1.14 0.97 0.87 0.82 0.78 0.74 0.75 0.78 0.95 1.16 1.37 1.50 1.44 1.40 1.44
0.09 0.09 0.12 0.12 0.12 0.17 0.23 0.29 0.36 0.39 0.42 0.46 0.49 0.47 0.42 0.41 0.46 0.47 0.48 0.51 0.55 0.56 0.56 0.56 0.57 0.67 0.85 1.24 1.28 1.07 0.86 0.82 0.83 0.82 0.76 0.73 0.82 0.94 1.12 1.34 1.42 1.51 1.63
0.09 0.09 0.12 0.15 0.17 0.22 0.29 0.37 0.41 0.42 0.44 0.48 0.52 0.54 0.47 0.42 0.44 0.46 0.45 0.45 0.45 0.47 0.48 0.49 0.49 0.52 0.68 1.10 1.19 1.04 0.81 0.73 0.74 0.74 0.69 0.69 0.68 0.74 0.72 0.85 0.95 1.05 1.23
0.15 0.15 0.16 0.18 0.22 0.26 0.32 0.38 0.42 0.44 0.45 0.45 0.45 0.46 0.41 0.35 0.38 0.42 0.41 0.37 0.37 0.41 0.43 0.43 0.43 0.40 0.46 0.84 1.12 1.01 0.71 0.65 0.66 0.67 0.69 0.70 0.67 0.67 0.75 0.83 0.86 0.80 0.83
0.14 0.13 0.13 0.15 0.20 0.25 0.28 0.30 0.32 0.34 0.34 0.34 0.33 0.33 0.30 0.30 0.34 0.39 0.36 0.32 0.32 0.34 0.37 0.40 0.43 0.41 0.40 0.65 1.05 1.08 0.74 0.70 0.65 0.66 0.79 0.84 0.75 0.78 0.96 1.09 1.06 0.87 0.74
0.07 0.08 0.09 0.10 0.12 0.16 0.19 0.20 0.21 0.22 0.24 0.24 0.24 0.29 0.27 0.25 0.30 0.35 0.34 0.32 0.31 0.34 0.36 0.39 0.46 0.46 0.40 0.55 0.96 1.23 0.86 0.77 0.67 0.68 0.81 1.07 1.04 1.02 1.09 1.15 1.19 1.13 0.86
0.07 0.08 0.09 0.13 0.15 0.17 0.18 0.17 0.15 0.16 0.17 0.18 0.20 0.26 0.28 0.26 0.27 0.29 0.32 0.32 0.33 0.34 0.36 0.38 0.43 0.46 0.42 0.46 0.77 1.25 1.15 0.92 0.82 0.80 0.87 1.00 1.09 1.08 1.10 1.16 1.15 1.18 1.12
0.09 0.10 0.12 0.17 0.22 0.22 0.18 0.14 0.12 0.11 0.12 0.16 0.18 0.23 0.31 0.29 0.27 0.29 0.29 0.30 0.34 0.37 0.39 0.40 0.42 0.44 0.46 0.49 0.66 1.02 1.24 1.15 0.95 0.89 0.81 0.90 1.02 1.08 1.11 1.07 1.08 1.16 1.21
0.12 0.14 0.15 0.19 0.22 0.18 0.13 0.12 0.11 0.10 0.11 0.15 0.19 0.24 0.30 0.29 0.28 0.29 0.30 0.31 0.34 0.39 0.44 0.46 0.47 0.47 0.49 0.54 0.68 0.81 0.92 1.05 0.98 0.95 1.10 1.06 1.02 0.99 0.94 0.93 0.98 1.00 0.98
0.14 0.14 0.14 0.17 0.20 0.15 0.10 0.09 0.09 0.09 0.11 0.14 0.20 0.25 0.29 0.31 0.30 0.28 0.29 0.31 0.37 0.52 0.60 0.59 0.58 0.53 0.52 0.62 0.82 0.87 0.83 0.91 0.95 0.95 1.04 1.04 0.93 0.83 0.79 0.81 0.82 0.82 0.89
0.16 0.16 0.16 0.17 0.17 0.13 0.10 0.09 0.11 0.13 0.14 0.16 0.20 0.25 0.29 0.31 0.31 0.29 0.30 0.34 0.39 0.63 0.89 0.85 0.84 0.84 0.82 0.91 1.20 1.21 1.11 1.12 1.14 1.15 1.15 1.05 0.91 0.83 0.74 0.70 0.67 0.68 0.79
0.22 0.21 0.18 0.14 0.12 0.11 0.10 0.11 0.13 0.17 0.19 0.20 0.22 0.26 0.31 0.33 0.32 0.32 0.32 0.34 0.38 0.49 0.59 0.66 0.79 0.80 0.94 1.08 1.08 1.05 1.05 1.09 1.13 1.16 1.09 0.92 0.81 0.76 0.71 0.70 0.70 0.68 0.70